| time (UTC) | temp C | wind direction | speed KPH | gust KPH | rain 1hr cm | rain 24hr cm | rain mn cm | humidity % | barometer mb |
| 20260505180142 | 12 | 148 | 1.6 | 3.2 | 0.00 | 0.81 | 0.61 | 87 | 1009.8 |
| 20260505174600 | 12 | 148 | 1.6 | 4.8 | 0.00 | 0.99 | 0.61 | 86 | 1009.7 |
| 20260505173126 | 13 | 148 | 1.6 | 3.2 | 0.00 | 0.99 | 0.61 | 86 | 1009.7 |
| 20260505171625 | 13 | 148 | 1.6 | 4.8 | 0.00 | 0.99 | 0.61 | 85 | 1009.8 |
| 20260505170132 | 13 | 101 | 0.0 | 4.8 | 0.00 | 0.99 | 0.61 | 83 | 1009.8 |
| 20260505164606 | 13 | 526.3 | 410.4 | 0.00 | 1.02 | 0.61 | 82 | 1009.8 | |
| 20260505163141 | 13 | 526.3 | 410.4 | 0.00 | 1.02 | 0.61 | 81 | 1010.0 | |
| 20260505161605 | 14 | 65 | 4.8 | 14.5 | 0.00 | 1.02 | 0.61 | 81 | 1009.9 |
| 20260505153136 | 14 | 136 | 3.2 | 6.4 | 0.00 | 1.02 | 0.61 | 82 | 1010.0 |
| 20260505151601 | 13 | 123 | 3.2 | 6.4 | 0.00 | 1.02 | 0.61 | 82 | 1010.0 |
| 20260505150128 | 13 | 137 | 3.2 | 6.4 | 0.00 | 1.02 | 0.61 | 82 | 1010.1 |
| 20260505124602 | 13 | 220 | 0.0 | 6.4 | 0.00 | 1.02 | 0.61 | 84 | 1010.8 |
| 20260505123129 | 13 | 111 | 1.6 | 6.4 | 0.00 | 1.02 | 0.61 | 85 | 1010.9 |
| 20260505121627 | 12 | 126 | 3.2 | 8.0 | 0.00 | 1.02 | 0.61 | 86 | 1010.9 |
| 20260505120140 | 12 | 250 | 4.8 | 8.0 | 0.00 | 1.02 | 0.61 | 86 | 1011.0 |
| 20260505114600 | 12 | 132 | 0.0 | 6.4 | 0.00 | 1.02 | 0.61 | 86 | 1011.0 |
| 20260505114501 | 12 | 132 | 0.0 | 6.4 | 0.00 | 1.02 | 0.61 | 86 | 1011.0 |
| 20260505113122 | 12 | 141 | 3.2 | 6.4 | 0.00 | 1.02 | 0.61 | 87 | 1011.1 |
| 20260505111600 | 12 | 224 | 4.8 | 6.4 | 0.03 | 1.02 | 0.61 | 88 | 1011.1 |
| 20260505110124 | 12 | 276 | 4.8 | 6.4 | 0.03 | 1.02 | 0.61 | 87 | 1011.2 |
| 20260505101559 | 11 | 348 | 1.6 | 3.2 | 0.03 | 0.99 | 0.61 | 91 | 1011.4 |
| 20260505100140 | 11 | 355 | 0.0 | 4.8 | 0.05 | 0.99 | 0.61 | 91 | 1011.4 |
| 20260505094556 | 11 | 235 | 0.0 | 3.2 | 0.05 | 0.99 | 0.61 | 93 | 1011.3 |
| 20260505093134 | 11 | 231 | 1.6 | 3.2 | 0.05 | 0.99 | 0.58 | 93 | 1011.4 |
| 20260505091617 | 11 | 232 | 1.6 | 4.8 | 0.05 | 0.99 | 0.58 | 94 | 1011.3 |
| 20260505090124 | 11 | 136 | 0.0 | 3.2 | 0.05 | 0.97 | 0.56 | 96 | 1011.1 |
| 20260505084600 | 10 | 135 | 3.2 | 6.4 | 0.05 | 0.97 | 0.56 | 95 | 1011.2 |
| 20260505083133 | 10 | 165 | 0.0 | 3.2 | 0.05 | 0.94 | 0.53 | 95 | 1010.9 |
| 20260505081557 | 10 | 241 | 1.6 | 8.0 | 0.08 | 0.94 | 0.53 | 95 | 1010.8 |
| 20260505080122 | 10 | 193 | 3.2 | 9.7 | 0.08 | 0.91 | 0.51 | 95 | 1010.9 |
| 20260505074557 | 10 | 227 | 6.4 | 11.3 | 0.08 | 0.89 | 0.51 | 94 | 1010.7 |
| 20260505073128 | 10 | 194 | 4.8 | 11.3 | 0.08 | 0.89 | 0.48 | 94 | 1010.7 |
| 20260505071556 | 10 | 165 | 8.0 | 14.5 | 0.08 | 0.86 | 0.46 | 95 | 1010.6 |
| 20260505070138 | 10 | 129 | 1.6 | 6.4 | 0.08 | 0.84 | 0.43 | 95 | 1010.5 |
| 20260505064608 | 10 | 128 | 1.6 | 9.7 | 0.10 | 0.81 | 0.43 | 95 | 1010.5 |
| 20260505063124 | 10 | 157 | 0.0 | 3.2 | 0.10 | 0.79 | 0.41 | 94 | 1010.3 |
| 20260505061557 | 9 | 150 | 1.6 | 8.0 | 0.13 | 0.79 | 0.38 | 93 | 1010.4 |
| 20260505060131 | 9 | 130 | 3.2 | 11.3 | 0.10 | 0.71 | 0.33 | 93 | 1010.3 |
| 20260505054619 | 9 | 115 | 4.8 | 9.7 | 0.13 | 0.71 | 0.33 | 93 | 1010.3 |
| 20260505053138 | 9 | 113 | 1.6 | 6.4 | 0.13 | 0.71 | 0.30 | 93 | 1010.2 |
| 20260505051557 | 9 | 280 | 0.0 | 9.7 | 0.13 | 0.66 | 0.25 | 92 | 1010.4 |
| 20260505050125 | 9 | 179 | 4.8 | 8.0 | 0.13 | 0.64 | 0.23 | 91 | 1010.6 |
| 20260505041609 | 9 | 134 | 3.2 | 6.4 | 0.10 | 0.53 | 0.15 | 90 | 1010.8 |
| 20260505040121 | 10 | 200 | 0.0 | 4.8 | 0.10 | 0.51 | 0.13 | 89 | 1010.9 |
| 20260505034556 | 10 | 137 | 3.2 | 8.0 | 0.08 | 0.48 | 0.08 | 88 | 1010.8 |
| 20260505033133 | 10 | 95 | 0.0 | 4.8 | 0.05 | 0.46 | 0.05 | 86 | 1010.7 |
| 20260505031559 | 10 | 242 | 6.4 | 16.1 | 0.05 | 0.43 | 0.05 | 86 | 1010.8 |
| 20260505030138 | 10 | 227 | 6.4 | 14.5 | 0.03 | 0.43 | 0.03 | 87 | 1011.0 |
| 20260505024615 | 10 | 251 | 3.2 | 4.8 | 0.00 | 0.41 | 0.00 | 87 | 1010.9 |
| 20260505023139 | 10 | 26 | 3.2 | 8.0 | 0.00 | 0.41 | 0.00 | 86 | 1010.8 |
| 20260505021600 | 10 | 313 | 1.6 | 4.8 | 0.00 | 0.41 | 0.00 | 85 | 1010.8 |
| 20260505020129 | 10 | 333 | 3.2 | 9.7 | 0.00 | 0.41 | 0.00 | 84 | 1010.9 |
| 20260505014558 | 10 | 325 | 3.2 | 11.3 | 0.00 | 0.41 | 0.00 | 84 | 1011.2 |
| 20260505013136 | 10 | 315 | 1.6 | 6.4 | 0.00 | 0.41 | 0.00 | 83 | 1011.4 |
| 20260505011558 | 10 | 295 | 1.6 | 4.8 | 0.00 | 0.41 | 0.00 | 82 | 1011.7 |
| 20260505010126 | 11 | 313 | 1.6 | 4.8 | 0.00 | 0.41 | 0.00 | 81 | 1012.1 |
| 20260505004557 | 11 | 323 | 0.0 | 4.8 | 0.00 | 0.41 | 0.00 | 80 | 1012.5 |
| 20260505003138 | 11 | 327 | 3.2 | 6.4 | 0.00 | 0.41 | 0.00 | 80 | 1012.8 |
| 20260505001557 | 11 | 320 | 3.2 | 4.8 | 0.00 | 0.41 | 0.00 | 79 | 1013.0 |
| 20260505000139 | 11 | 290 | 3.2 | 9.7 | 0.00 | 0.41 | 0.00 | 77 | 1013.1 |
| 20260504234558 | 12 | 226 | 4.8 | 11.3 | 0.00 | 0.41 | 0.00 | 76 | 1013.4 |
| 20260504233129 | 13 | 116 | 6.4 | 17.7 | 0.00 | 0.41 | 0.00 | 70 | 1013.3 |
| 20260504231559 | 14 | 271 | 12.9 | 38.6 | 0.00 | 0.41 | 0.00 | 54 | 1013.1 |
| 20260504230001 | 14 | 252 | 27.4 | 41.8 | 0.00 | 0.41 | 0.00 | 54 | 1013.3 |
| 20260504224625 | 13 | 294 | 24.1 | 37.0 | 0.00 | 0.41 | 0.41 | 59 | 1013.3 |
| 20260504223126 | 13 | 316 | 20.9 | 38.6 | 0.00 | 0.41 | 0.41 | 59 | 1013.5 |
| 20260504221557 | 13 | 317 | 27.4 | 41.8 | 0.00 | 0.41 | 0.41 | 59 | 1013.7 |
| 20260504220136 | 13 | 339 | 20.9 | 41.8 | 0.00 | 0.41 | 0.41 | 60 | 1014.0 |
| 20260504214557 | 13 | 302 | 17.7 | 35.4 | 0.00 | 0.41 | 0.41 | 63 | 1014.1 |
| 20260504213139 | 13 | 267 | 19.3 | 33.8 | 0.00 | 0.41 | 0.41 | 64 | 1014.3 |
| 20260504211601 | 13 | 284 | 19.3 | 40.2 | 0.00 | 0.41 | 0.41 | 64 | 1014.3 |
| 20260504210129 | 13 | 297 | 19.3 | 32.2 | 0.00 | 0.41 | 0.41 | 66 | 1014.4 |
| 20260504204602 | 13 | 281 | 16.1 | 38.6 | 0.00 | 0.41 | 0.41 | 67 | 1014.6 |
| 20260504203139 | 12 | 310 | 19.3 | 33.8 | 0.03 | 0.41 | 0.41 | 68 | 1014.8 |
| 20260504201604 | 12 | 325 | 24.1 | 40.2 | 0.03 | 0.41 | 0.41 | 71 | 1014.7 |
| 20260504200128 | 12 | 302 | 17.7 | 41.8 | 0.05 | 0.41 | 0.41 | 73 | 1014.7 |
| 20260504194557 | 11 | 315 | 17.7 | 35.4 | 0.05 | 0.41 | 0.41 | 75 | 1014.7 |
| 20260504193135 | 11 | 296 | 19.3 | 38.6 | 0.08 | 0.38 | 0.38 | 78 | 1014.8 |
| 20260504191610 | 11 | 311 | 27.4 | 40.2 | 0.13 | 0.38 | 0.38 | 78 | 1014.5 |
| 20260504190140 | 11 | 327 | 20.9 | 48.3 | 0.15 | 0.36 | 0.36 | 77 | 1014.5 |
| 20260504184557 | 11 | 324 | 24.1 | 56.3 | 0.15 | 0.33 | 0.33 | 78 | 1014.3 |
| 20260504183130 | 11 | 294 | 25.7 | 40.2 | 0.15 | 0.30 | 0.30 | 78 | 1014.5 |
| 20260504181602 | 12 | 300 | 25.7 | 43.5 | 0.18 | 0.25 | 0.25 | 76 | 1014.5 |